Wind_Speed
2 2 3 3 3 3 2 2 2 2 2 2 2 3 3 3 3 3 4 3 3 3 3 3 3 3 3 4 4 4 4 4 4 3 3 3 3 3 3 4 4 3 3
3 3 3 3 3 3 3 3 3 3 3 3 3 3 3 3 4 5 5 4 4 4 4 3 4 4 4 4 4 4 4 4 4 4 4 4 3 3 3 4 4 4 4
5 5 4 4 4 4 4 4 4 4 3 3 4 4 4 4 5 5 5 4 4 4 4 4 4 4 4 5 5 5 5 5 5 4 4 4 4 4 4 4 5 5 4
6 6 5 5 4 4 5 5 5 5 4 4 4 4 4 5 5 5 5 5 4 4 4 4 5 5 5 6 6 6 6 6 6 5 5 5 4 4 4 4 4 5 5
7 7 6 6 5 6 6 6 6 6 6 6 5 5 5 5 5 5 5 5 4 5 5 5 5 6 6 7 7 7 7 7 7 7 6 6 5 5 5 5 5 6 6
8 8 8 8 8 7 7 7 7 7 7 8 7 7 6 7 7 7 6 6 6 6 6 6 7 7 7 7 8 8 8 8 8 7 7 7 6 6 6 6 7 7 6
9 9 9 9 9 9 9 8 8 8 8 8 8 8 8 8 7 7 7 7 7 7 7 7 8 8 8 8 8 8 8 8 8 8 8 7 7 8 8 8 8 8 8
10 10 10 10 10 10 10 9 9 9 9 9 9 8 8 8 8 8 8 8 8 8 8 8 8 8 9 8 8 9 9 9 8 8 9 8 9 9 9 9 9 9 9
10 10 11 11 10 10 10 10 9 9 10 9 9 9 9 9 9 9 9 9 9 9 9 9 9 9 10 9 9 9 9 9 8 8 9 9 10 10 10 10 11 10 10
11 11 11 11 11 10 10 11 11 10 10 10 10 9 9 9 9 9 9 10 10 10 10 9 9 10 10 10 10 10 9 9 9 9 10 10 10 10 11 11 12 11 11
11 11 11 11 10 10 10 11 11 11 10 10 10 10 10 10 10 10 10 10 10 10 10 9 9 9 9 10 10 10 10 10 10 10 11 11 11 11 12 12 12 12 12
11 11 11 11 11 11 10 10 10 10 10 10 10 11 11 11 11 11 10 11 11 11 11 11 11 10 10 10 10 10 10 11 11 11 11 12 12 13 13 13 13 13 12
12 12 12 11 11 11 10 11 11 11 11 11 11 11 12 12 12 12 11 11 12 12 12 13 12 12 12 12 12 11 11 12 12 13 13 13 13 13 14 14 13 14 14
13 13 12 12 11 11 10 11 11 12 12 12 12 12 12 12 13 13 12 12 12 12 12 13 13 13 13 13 13 13 13 13 13 13 14 14 14 15 14 15 15 16 16
14 13 13 13 12 12 11 10 12 12 12 13 13 14 13 13 13 13 13 13 13 13 13 14 14 14 14 14 14 14 14 14 14 14 15 15 15 15 16 16 17 17 17
13 14 14 13 13 12 12 12 12 13 13 14 14 14 14 14 14 15 15 15 15 14 15 15 15 15 15 15 15 15 15 15 15 16 16 16 16 16 17 17 18 18 18
14 14 14 14 14 13 13 13 13 13 14 14 14 14 14 15 15 15 16 16 16 16 16 16 17 17 17 17 17 17 17 17 17 18 18 18 17 18 18 18 18 19 19
14 13 13 13 13 13 14 14 14 14 15 15 15 15 15 16 16 16 17 17 18 18 18 18 18 18 18 19 19 19 19 19 19 20 19 19 19 19 20 20 20 20 21
13 13 14 14 14 15 15 16 16 16 16 16 16 16 17 17 17 18 18 18 19 19 19 19 19 20 20 20 20 21 21 21 22 21 21 22 21 21 21 21 22 22 23
14 14 14 15 15 16 16 17 17 17 17 17 17 18 18 18 19 19 19 19 20 20 20 20 20 20 21 21 22 22 23 23 23 23 24 23 23 23 24 24 24 25 25
15 16 16 16 16 16 17 18 18 18 18 18 19 19 19 19 19 20 20 20 21 21 21 21 22 22 22 22 23 24 24 24 25 25 25 26 26 26 26 26 27 27 28
16 17 17 17 17 18 18 19 20 20 20 20 20 21 20 20 20 20 21 21 22 22 23 23 23 23 24 24 25 25 26 26 26 27 27 28 28 28 29 29 29 30 31
16 16 17 18 19 19 20 20 21 22 21 21 21 21 21 21 22 22 23 23 23 23 24 24 24 25 25 26 26 27 26 26 27 28 28 29 30 31 31 32 33 33 34
15 16 16 18 19 20 21 22 23 24 22 21 22 23 23 22 22 23 24 24 25 26 26 26 26 27 27 27 27 28 29 28 28 29 30 30 32 33 34 35 35 36 36
15 15 17 17 18 19 21 23 24 23 23 23 23 23 24 24 25 26 26 26 27 28 27 27 28 27 28 29 30 30 30 30 31 32 33 34 35 36 36 37 38 38 39
16 17 17 17 17 18 20 21 22 22 22 23 24 25 25 26 27 28 28 28 28 28 28 29 29 29 30 30 31 31 32 33 34 35 37 38 38 39 40 40 41 41 42
Wind_Direction
304 309 307 276 275 276 284 310 321 311 303 299 289 302 320 333 327 322 319 315 315 321 320 315 323 319 324 330 326 325 322 323 321 318 315 316 316 305 305 297 288 287 283
299 300 288 280 281 276 277 286 292 301 304 293 280 283 301 315 315 315 312 303 300 300 304 302 305 307 307 313 319 318 312 305 307 307 300 300 307 310 308 301 293 284 282
290 288 282 275 276 275 277 276 275 284 292 291 280 278 290 300 309 312 313 304 295 294 295 293 293 299 307 313 314 311 305 298 298 299 293 290 293 298 303 305 294 283 280
283 279 275 269 267 268 272 276 273 271 278 284 283 281 284 296 305 308 309 307 298 290 292 291 293 300 304 305 304 306 302 295 293 292 287 280 282 289 295 298 295 287 280
275 272 269 262 262 268 271 276 275 274 275 274 277 277 282 289 295 301 300 299 294 287 289 286 288 295 298 299 298 300 296 291 285 284 282 275 274 280 286 286 289 289 284
269 268 265 259 262 265 268 273 277 275 276 272 274 275 274 281 289 293 293 290 289 288 286 284 288 295 297 298 297 295 294 294 286 282 280 273 271 276 281 285 286 286 285
265 268 265 262 262 263 265 270 276 277 275 271 269 270 274 278 283 288 287 287 286 286 284 286 290 293 295 299 298 293 291 294 290 281 278 273 274 278 279 283 284 282 280
258 264 265 265 264 264 267 268 272 273 271 268 269 270 272 275 277 285 286 286 285 283 284 288 290 291 294 297 297 294 290 290 289 283 280 279 277 282 280 279 281 279 278
258 261 262 262 263 264 264 266 268 267 265 266 267 267 269 273 276 281 284 285 282 281 282 286 289 289 290 289 293 292 287 287 286 285 283 278 278 281 281 280 281 280 277
258 257 257 259 260 264 265 264 265 262 261 263 266 267 267 271 276 279 282 285 283 279 280 281 287 290 289 288 289 289 288 284 284 285 283 282 282 283 282 282 279 280 277
259 256 258 258 258 262 266 264 264 259 255 258 261 262 265 269 274 277 279 281 281 280 279 277 282 287 287 289 288 287 286 285 287 285 285 284 282 283 284 283 278 278 277
260 256 255 258 258 259 263 260 257 256 254 253 256 259 263 266 271 276 279 279 278 278 278 279 281 283 285 286 285 285 285 283 284 285 285 285 285 283 284 283 279 277 274
261 259 257 259 260 257 259 257 255 256 255 254 258 262 263 264 268 273 278 279 278 278 279 280 280 281 282 281 282 282 282 283 282 283 283 283 283 285 285 283 278 276 273
263 261 259 259 260 258 258 256 255 254 253 255 259 261 262 263 266 272 277 279 279 279 280 280 279 281 282 281 282 282 283 283 282 283 284 281 281 283 283 282 280 277 274
262 260 259 259 262 260 258 261 257 256 259 261 261 261 262 264 267 272 275 277 278 279 280 280 280 282 283 282 281 280 281 282 282 283 285 284 282 283 281 280 280 278 275
258 257 257 259 260 256 257 263 265 262 261 261 262 262 261 265 267 271 273 275 277 278 278 279 281 281 281 281 280 280 280 282 282 282 284 285 285 284 283 280 279 277 277
256 257 257 256 256 258 261 266 266 265 263 264 264 264 263 265 270 273 273 273 275 276 277 276 278 279 279 279 278 279 279 280 280 281 282 284 283 283 284 282 280 279 279
256 258 258 259 257 258 261 263 267 267 266 265 265 265 265 267 271 274 273 274 274 275 275 275 277 278 280 280 279 280 280 280 279 281 282 282 284 284 283 281 280 280 280
256 258 259 260 260 260 263 265 267 270 269 267 266 266 267 269 272 275 275 275 275 276 275 274 275 277 280 280 280 281 282 281 280 281 281 281 282 283 282 283 282 282 281
258 259 260 260 261 263 265 267 267 269 269 268 268 268 270 272 273 275 275 276 276 276 275 273 274 277 279 279 280 280 281 280 279 280 281 281 282 282 283 283 284 283 282
260 259 260 261 263 265 268 268 267 268 270 269 268 269 271 272 274 274 275 276 276 276 275 274 275 277 279 281 281 280 279 279 278 279 280 281 281 282 282 283 283 284 284
261 261 261 262 266 268 270 270 269 268 269 270 270 270 271 271 273 274 275 277 277 276 275 276 277 277 279 281 282 281 280 280 278 279 279 280 280 281 282 282 282 283 284
264 266 264 265 269 269 269 269 269 270 270 270 271 272 272 274 274 275 276 277 277 276 276 278 279 278 278 280 281 282 281 280 279 279 280 279 280 281 282 283 283 284 284
266 267 268 269 270 271 270 270 271 270 269 271 273 272 272 273 275 277 279 280 279 279 279 279 280 280 279 278 279 280 281 281 281 280 281 282 282 282 282 283 284 284 285
267 270 272 273 275 273 271 272 271 270 270 271 273 274 274 273 276 279 280 281 281 282 281 281 283 282 280 279 280 281 282 283 283 283 283 283 283 283 283 283 283 283 284
268 271 274 275 278 279 278 276 273 272 270 271 271 272 274 276 278 279 280 282 282 283 282 281 281 282 281 281 282 282 283 283 283 282 282 283 283 284 284 283 283 284 284
Height
5898 5897 5897 5897 5898 5898 5898 5899 5899 5899 5899 5899 5899 5899 5898 5898 5898 5898 5898 5898 5897 5897 5897 5897 5897 5896 5896 5896 5896 5895 5895 5895 5894 5894 5894 5894 5893 5893 5893 5893 5892 5892 5893
5897 5897 5897 5896 5897 5897 5898 5898 5898 5898 5898 5898 5898 5898 5898 5898 5898 5897 5897 5897 5897 5897 5897 5897 5896 5896 5896 5895 5895 5895 5894 5894 5894 5894 5893 5893 5893 5892 5892 5892 5892 5892 5892
5896 5896 5896 5896 5896 5897 5897 5897 5897 5897 5898 5898 5897 5898 5898 5897 5897 5897 5896 5896 5896 5896 5896 5896 5896 5896 5895 5895 5894 5894 5894 5893 5893 5893 5892 5892 5892 5892 5891 5891 5891 5891 5891
5895 5895 5895 5895 5896 5896 5896 5896 5896 5897 5897 5897 5897 5897 5897 5897 5896 5896 5896 5896 5896 5896 5895 5895 5895 5895 5895 5894 5894 5893 5893 5893 5892 5892 5891 5891 5891 5891 5890 5890 5890 5890 5890
5894 5894 5894 5894 5894 5895 5895 5895 5896 5896 5896 5896 5896 5896 5896 5896 5896 5896 5895 5895 5895 5895 5895 5895 5894 5894 5894 5893 5893 5892 5892 5891 5891 5890 5890 5890 5890 5890 5890 5889 5889 5889 5888
5893 5893 5893 5893 5893 5893 5894 5894 5894 5894 5894 5894 5895 5895 5895 5895 5895 5895 5894 5894 5894 5894 5894 5894 5894 5893 5893 5892 5892 5891 5891 5890 5890 5889 5889 5889 5889 5889 5888 5888 5888 5888 5887
5891 5891 5891 5891 5891 5892 5892 5893 5893 5893 5893 5893 5894 5894 5894 5894 5894 5894 5893 5893 5893 5893 5893 5892 5892 5892 5891 5891 5890 5890 5889 5889 5888 5888 5888 5887 5887 5887 5887 5887 5886 5886 5886
5889 5889 5889 5889 5889 5890 5890 5891 5891 5891 5891 5892 5892 5892 5892 5893 5893 5892 5892 5892 5891 5891 5891 5891 5890 5890 5890 5889 5889 5888 5888 5887 5887 5886 5886 5886 5886 5886 5885 5885 5885 5884 5884
5887 5887 5887 5887 5887 5887 5888 5888 5889 5889 5889 5890 5890 5891 5891 5891 5891 5891 5890 5890 5890 5890 5889 5889 5889 5888 5888 5888 5887 5887 5886 5886 5885 5885 5885 5884 5884 5884 5883 5883 5883 5882 5882
5885 5885 5885 5885 5885 5885 5885 5886 5887 5887 5887 5888 5888 5888 5889 5889 5889 5889 5889 5888 5888 5888 5887 5887 5887 5886 5886 5885 5885 5885 5884 5884 5884 5883 5883 5883 5882 5882 5881 5881 5880 5880 5880
5882 5883 5882 5882 5883 5883 5883 5884 5884 5884 5885 5885 5886 5886 5887 5887 5887 5887 5887 5886 5886 5886 5885 5885 5885 5885 5884 5883 5883 5883 5882 5882 5882 5881 5881 5881 5880 5879 5879 5878 5878 5877 5877
5880 5880 5880 5880 5881 5881 5881 5882 5882 5882 5883 5883 5884 5884 5885 5885 5885 5885 5885 5884 5884 5884 5883 5883 5883 5882 5882 5881 5881 5881 5880 5880 5880 5879 5879 5878 5877 5877 5876 5875 5875 5874 5874
5877 5877 5878 5878 5878 5878 5878 5879 5879 5880 5880 5881 5881 5882 5882 5883 5883 5883 5882 5882 5882 5882 5881 5881 5880 5880 5879 5879 5879 5878 5878 5877 5877 5876 5876 5875 5875 5874 5873 5872 5872 5871 5871
5875 5875 5875 5875 5875 5876 5876 5876 5877 5877 5878 5878 5879 5879 5879 5880 5880 5880 5880 5879 5879 5879 5879 5878 5878 5877 5877 5876 5876 5875 5875 5874 5874 5873 5873 5872 5871 5871 5870 5869 5869 5868 5868
5872 5872 5872 5873 5873 5873 5874 5874 5875 5875 5876 5876 5876 5876 5877 5877 5877 5877 5877 5877 5877 5876 5876 5875 5875 5874 5874 5873 5873 5872 5872 5871 5871 5870 5869 5869 5868 5867 5866 5865 5865 5864 5864
5869 5869 5870 5870 5871 5871 5871 5872 5872 5872 5873 5873 5873 5873 5874 5874 5874 5874 5874 5873 5873 5873 5873 5872 5871 5871 5870 5870 5869 5869 5868 5868 5867 5867 5866 5865 5864 5863 5862 5861 5861 5860 5860
5866 5866 5867 5867 5868 5868 5869 5869 5869 5870 5870 5870 5870 5870 5870 5871 5871 5870 5870 5870 5870 5869 5869 5868 5868 5867 5866 5866 5865 5865 5864 5864 5863 5862 5862 5861 5860 5859 5858 5857 5856 5856 5855
5862 5863 5863 5864 5865 5865 5866 5866 5866 5866 5867 5867 5867 5867 5867 5867 5867 5867 5866 5866 5866 5865 5865 5864 5864 5863 5862 5862 5861 5860 5860 5859 5858 5858 5857 5856 5855 5854 5853 5853 5852 5851 5850
5859 5859 5860 5861 5861 5862 5862 5863 5863 5863 5863 5863 5863 5863 5863 5863 5863 5863 5862 5862 5861 5861 5860 5860 5859 5858 5858 5857 5856 5856 5855 5854 5853 5853 5852 5851 5850 5849 5848 5847 5846 5845 5845
5855 5856 5857 5857 5858 5858 5858 5858 5859 5859 5859 5859 5859 5859 5859 5859 5858 5858 5858 5857 5857 5856 5856 5855 5854 5854 5853 5852 5851 5850 5850 5849 5848 5847 5846 5846 5845 5843 5842 5841 5840 5839 5838
5852 5853 5853 5853 5853 5854 5854 5854 5854 5854 5854 5855 5855 5854 5854 5854 5854 5853 5853 5852 5852 5851 5851 5850 5849 5848 5847 5846 5846 5845 5844 5843 5842 5841 5840 5839 5838 5837 5836 5835 5833 5832 5830
5848 5848 5849 5849 5849 5849 5849 5849 5849 5849 5850 5850 5850 5849 5849 5849 5848 5848 5848 5847 5846 5846 5845 5844 5843 5843 5842 5840 5840 5839 5837 5837 5836 5835 5833 5832 5831 5830 5828 5827 5825 5824 5822
5844 5844 5844 5844 5844 5844 5844 5844 5844 5844 5844 5844 5844 5844 5844 5843 5843 5842 5842 5841 5840 5840 5839 5838 5837 5836 5835 5834 5833 5832 5830 5829 5828 5827 5826 5824 5823 5822 5820 5818 5816 5815 5813
5840 5840 5840 5839 5840 5839 5839 5838 5838 5839 5839 5839 5839 5838 5838 5838 5838 5837 5836 5835 5834 5833 5833 5832 5831 5829 5828 5827 5826 5824 5823 5821 5820 5819 5817 5816 5815 5813 5811 5809 5807 5805 5803
5836 5836 5835 5835 5835 5834 5833 5833 5832 5833 5833 5833 5833 5832 5832 5832 5831 5831 5830 5829 5827 5826 5825 5824 5823 5821 5820 5818 5817 5816 5814 5813 5812 5810 5808 5807 5805 5803 5801 5799 5796 5794 5792
5832 5832 5831 5831 5830 5829 5828 5827 5827 5827 5827 5827 5826 5826 5825 5825 5824 5823 5822 5821 5820 5819 5817 5816 5815 5813 5812 5810 5809 5807 5806 5804 5803 5801 5799 5796 5794 5792 5790 5788 5784 5782 5780